EW2847 Weather Reports


Display with metric or nautical units.
time (UTC)temp
F
wind
direction
speed
MPH
gust
MPH
rain 1hr
in
rain 24hr
in
rain mn
in
humidity
%
barometer
mb
20260503200015 52 283 2.0 10.0 0.00 0.00 0.00 29 1003.6
20260503194513 51 196 3.0 9.0 0.00 0.00 0.00 30 1003.7
20260503193010 52 195 2.0 15.0 0.00 0.00 0.00 30 1004.0
20260503191509 53 188 2.0 11.0 0.00 0.00 0.00 31 1004.3
20260503190015 53 198 1.0 8.0 0.00 0.00 0.00 32 1004.4
20260503184507 51 181 4.0 11.0 0.00 0.00 0.00 32 1004.5
20260503183003 51 216 1.0 6.0 0.00 0.00 0.00 32 1004.8
20260503181600 51 225 1.0 7.0 0.00 0.00 0.00 33 1004.9
20260503174557 52 182 2.0 9.0 0.00 0.00 0.00 34 1005.4
20260503173112 50 325 1.0 9.0 0.00 0.00 0.00 36 1005.4
20260503171553 50 5 1.0 8.0 0.00 0.00 0.00 37 1005.8
20260503081620 27 207 0.0 2.0 0.00 0.00 0.00 83 1009.9
20260503080104 27 201 0.0 2.0 0.00 0.00 0.00 83 1009.8
20260503071606 28 200 0.0 0.0 0.00 0.00 0.00 80 1010.0
20260503054542 29 200 0.0 2.0 0.00 0.00 0.00 78 1010.3
20260503053039 29 200 1.0 3.0 0.00 0.00 0.00 78 1010.4
20260503051536 29 200 1.0 2.0 0.00 0.00 0.00 78 1010.5
20260503050035 29 200 0.0 2.0 0.00 0.00 0.00 77 1010.6
20260503044532 29 200 0.0 2.0 0.00 0.00 0.00 76 1010.8
20260503043031 29 200 0.0 1.0 0.00 0.00 0.00 75 1010.8
20260503041528 30 200 0.0 2.0 0.00 0.00 0.00 74 1011.0
20260503040027 30 200 0.0 2.0 0.00 0.00 0.00 73 1011.1
20260503034524 30 200 0.0 1.0 0.00 0.00 0.00 71 1011.2
20260503033032 31 200 0.0 1.0 0.00 0.00 0.00 71 1011.3
20260503031522 31 200 0.0 1.0 0.00 0.00 0.00 70 1011.4
20260503030019 32 200 0.0 1.0 0.00 0.00 0.00 69 1011.5
20260503024521 32 200 0.0 1.0 0.00 0.00 0.00 68 1011.6
20260503023020 32 200 0.0 3.0 0.00 0.00 0.00 68 1011.8
20260503021525 32 228 1.0 2.0 0.00 0.00 0.00 68 1011.8
20260503020018 32 257 0.0 2.0 0.00 0.00 0.00 68 1012.0
20260503014524 33 250 0.0 1.0 0.00 0.00 0.00 68 1012.0
20260503013017 33 250 0.0 1.0 0.00 0.00 0.00 67 1012.1
20260503011516 33 250 0.0 1.0 0.00 0.00 0.00 65 1012.0
20260503010017 33 250 0.0 1.0 0.00 0.00 0.00 65 1012.0
20260503004524 34 263 0.0 1.0 0.00 0.00 0.00 63 1012.0
20260503003015 34 263 0.0 4.0 0.00 0.00 0.00 63 1012.0
20260503001515 34 240 0.0 3.0 0.00 0.00 0.00 63 1011.9
20260503000015 35 265 0.0 3.0 0.00 0.00 0.00 61 1011.9
20260502234513 35 271 0.0 2.0 0.00 0.00 0.00 61 1011.9
20260502233014 35 234 0.0 3.0 0.00 0.00 0.00 60 1011.9
20260502231516 35 233 0.0 4.0 0.00 0.00 0.00 59 1011.8
20260502230015 36 248 2.0 7.0 0.00 0.00 0.00 58 1011.9
20260502224511 36 267 0.0 3.0 0.00 0.00 0.00 58 1011.8
20260502223010 37 275 1.0 7.0 0.00 0.00 0.00 58 1011.7
20260502221508 37 248 1.0 7.0 0.00 0.00 0.00 58 1011.8
20260502220007 37 315 2.0 5.0 0.00 0.00 0.00 58 1011.6
20260502214511 38 218 1.0 7.0 0.00 0.00 0.00 58 1011.5
20260502213005 38 292 1.0 3.0 0.00 0.00 0.00 57 1011.6
20260502211508 38 291 2.0 7.0 0.00 0.00 0.00 57 1011.5
20260502210003 37 193 1.0 8.0 0.00 0.00 0.00 58 1011.5
20260502204503 37 229 1.0 10.0 0.00 0.00 0.00 57 1011.5
20260502203002 38 225 1.0 8.0 0.00 0.00 0.00 58 1011.6
20260502201503 38 355 2.0 6.0 0.00 0.00 0.00 57 1011.5